Change the Weather History Date:

Sunday, May 12, 2013

  Actual Average (KEVV) Record (KEVV)
Temperature  
Mean Temperature 50 °F 64 °F  
Max Temperature 59 °F 76 °F 90 °F (1902)
Min Temperature 41 °F 53 °F 37 °F (1981)
Degree Days  
Heating Degree Days 15 3  
Month to date heating degree days 49  
Since 1 July heating degree days 4504  
Cooling Degree Days 0 3  
Month to date cooling degree days 23  
Year to date cooling degree days 50  
Moisture  
Dew Point 33 °F    
Average Humidity 55    
Maximum Humidity 95    
Minimum Humidity 34    
Precipitation  
Precipitation 0.00 in 0.19 in 3.15 in (1959)
Month to date precipitation 2.09  
Year to date precipitation 16.97  
Snow  
Snow 0.00 in 0.00 in 0.00 in (2002)
Month to date snowfall 0.0  
Since 1 July snowfall 11.8  
Snow Depth -    
Sea Level Pressure  
Sea Level Pressure 30.17 in    
Wind  
Wind Speed 7 mph (NW)    
Max Wind Speed 16 mph    
Max Gust Speed 23 mph    
Visibility 10 miles    
Events      
T = Trace of Precipitation, MM = Missing Value Source: NWS Daily Summary

Daily Weather History Graph

Daily Weather History Graph

Search for Another Location

Airport or City:

Trip Planner

Search our weather history database for the weather conditions in past years. The results will help you decide how hot, cold, wet, or windy it might be!

Date:

Astronomy

May. 12, 2013 Rise Set
Actual Time 5:44 AM CDT 7:56 PM CDT
Civil Twilight 5:14 AM CDT 8:26 PM CDT
Nautical Twilight 4:38 AM CDT 9:02 PM CDT
Astronomical Twilight 3:58 AM CDT 9:42 PM CDT
Moon 7:39 AM CDT (5/12) 10:23 PM CDT (5/12)
Length of Visible Light 15h 11m
Length of Day
14h 12m
Waxing Crescent, 7% of the Moon is Illuminated
May 12
Waxing Crescent
May 17
First Quarter
May 24
Full
May 31
Last Quarter
Jun 8
New

Hourly Weather History & Observations

Time (CDT) Temp. Windchill Dew Point Humidity Pressure Visibility Wind Dir Wind Speed Gust Speed Precip Events Conditions
12:15 AM 45.7 °F 42.7 °F 35.2 °F 67% 30.14 in 10.0 mi WNW 5.8 mph - N/A   Clear
12:35 AM 47.5 °F - 34.2 °F 60% 30.14 in 10.0 mi NW 6.9 mph - N/A   Clear
12:55 AM 46.0 °F 43.1 °F 34.3 °F 64% 30.14 in 10.0 mi WNW 5.8 mph - N/A   Clear
1:15 AM 45.0 °F 42.6 °F 35.2 °F 69% 30.14 in 10.0 mi WNW 4.6 mph - N/A   Clear
1:35 AM 44.1 °F 40.8 °F 35.1 °F 71% 30.14 in 10.0 mi WNW 5.8 mph - N/A   Clear
1:55 AM 43.9 °F 40.5 °F 34.9 °F 71% 30.14 in 10.0 mi WNW 5.8 mph - N/A   Clear
2:15 AM 43.5 °F 39.4 °F 35.1 °F 72% 30.13 in 10.0 mi WNW 6.9 mph - N/A   Clear
2:35 AM 43.5 °F 39.4 °F 35.1 °F 72% 30.13 in 10.0 mi WNW 6.9 mph - N/A   Clear
2:55 AM 43.2 °F 38.4 °F 35.1 °F 73% 30.13 in 10.0 mi WNW 8.1 mph - N/A   Clear
3:15 AM 43.0 °F 39.5 °F 35.1 °F 74% 30.13 in 10.0 mi WNW 5.8 mph - N/A   Clear
3:35 AM 42.4 °F 38.1 °F 35.1 °F 75% 30.14 in 10.0 mi WNW 6.9 mph - N/A   Clear
3:55 AM 42.6 °F 38.4 °F 34.7 °F 74% 30.14 in 10.0 mi WNW 6.9 mph - N/A   Clear
4:15 AM 41.7 °F 38.0 °F 34.3 °F 75% 30.14 in 10.0 mi WNW 5.8 mph - N/A   Clear
4:35 AM 42.3 °F 37.9 °F 34.3 °F 74% 30.14 in 10.0 mi WNW 6.9 mph - N/A   Clear
4:55 AM 42.3 °F 37.9 °F 34.2 °F 73% 30.14 in 10.0 mi WNW 6.9 mph - N/A   Clear
5:15 AM 42.1 °F 37.7 °F 34.0 °F 73% 30.15 in 10.0 mi West 6.9 mph - N/A   Clear
5:35 AM 41.9 °F 37.5 °F 34.0 °F 73% 30.16 in 10.0 mi WNW 6.9 mph - N/A   Clear
5:55 AM 41.4 °F 36.8 °F 34.0 °F 75% 30.17 in 10.0 mi WNW 6.9 mph - N/A   Clear
6:15 AM 41.5 °F 37.1 °F 34.2 °F 75% 30.17 in 10.0 mi WNW 6.9 mph - N/A   Clear
6:35 AM 42.4 °F 37.5 °F 34.7 °F 74% 30.18 in 10.0 mi WNW 8.1 mph - N/A   Clear
6:55 AM 44.6 °F 40.7 °F 35.6 °F 71% 30.18 in 10.0 mi NW 6.9 mph - N/A   Clear
7:15 AM 45.0 °F 41.2 °F 34.9 °F 68% 30.18 in 10.0 mi NW 6.9 mph - N/A   Clear
7:35 AM 45.9 °F 41.7 °F 34.3 °F 64% 30.19 in 10.0 mi NW 8.1 mph - N/A   Clear
7:55 AM 47.1 °F - 34.2 °F 61% 30.19 in 10.0 mi NNW 9.2 mph - N/A   Clear
8:15 AM 47.8 °F - 33.4 °F 57% 30.19 in 10.0 mi NNW 8.1 mph - N/A   Clear
8:35 AM 49.1 °F - 32.4 °F 53% 30.20 in 10.0 mi North 8.1 mph - N/A   Clear
8:55 AM 50.0 °F - 31.1 °F 48% 30.20 in 10.0 mi NNW 8.1 mph - N/A   Clear
9:15 AM 51.1 °F - 29.5 °F 43% 30.20 in 10.0 mi NNW 9.2 mph - N/A   Clear
9:35 AM 51.1 °F - 30.2 °F 45% 30.20 in 10.0 mi NW 9.2 mph - N/A   Clear
9:55 AM 52.3 °F - 28.2 °F 39% 30.20 in 10.0 mi NW 10.4 mph 16.1 mph N/A   Clear
10:15 AM 52.9 °F - 28.0 °F 38% 30.21 in 10.0 mi NW 16.1 mph 19.6 mph N/A   Clear
10:35 AM 52.9 °F - 28.2 °F 39% 30.21 in 10.0 mi WNW 15.0 mph 23.0 mph N/A   Clear
10:55 AM 53.4 °F - 29.1 °F 39% 30.21 in 10.0 mi NW 10.4 mph 20.7 mph N/A   Clear
11:15 AM 54.1 °F - 28.8 °F 38% 30.21 in 10.0 mi NNW 8.1 mph - N/A   Clear
11:35 AM 54.3 °F - 29.7 °F 39% 30.21 in 10.0 mi WNW 12.7 mph 20.7 mph N/A   Clear
11:55 AM 54.9 °F - 28.9 °F 37% 30.21 in 10.0 mi NW 16.1 mph 23.0 mph N/A   Scattered Clouds
12:15 PM 55.2 °F - 29.5 °F 37% 30.21 in 10.0 mi West 9.2 mph 20.7 mph N/A   Scattered Clouds
12:35 PM 55.6 °F - 31.1 °F 39% 30.21 in 10.0 mi NW 10.4 mph 20.7 mph N/A   Scattered Clouds
12:55 PM 56.1 °F - 30.9 °F 38% 30.20 in 10.0 mi NW 9.2 mph 18.4 mph N/A   Scattered Clouds
1:15 PM 56.7 °F - 31.5 °F 38% 30.20 in 10.0 mi WNW 12.7 mph 18.4 mph N/A   Scattered Clouds
1:35 PM 56.8 °F - 31.1 °F 38% 30.20 in 10.0 mi WNW 12.7 mph 16.1 mph N/A   Scattered Clouds
1:55 PM 57.2 °F - 31.3 °F 37% 30.19 in 10.0 mi WNW 9.2 mph - N/A   Scattered Clouds
2:15 PM 57.6 °F - 30.9 °F 36% 30.19 in 10.0 mi WNW 12.7 mph - N/A   Clear
2:35 PM 57.7 °F - 32.2 °F 38% 30.19 in 10.0 mi West 9.2 mph 16.1 mph N/A   Clear
2:55 PM 58.1 °F - 30.9 °F 36% 30.19 in 10.0 mi WNW 10.4 mph 20.7 mph N/A   Scattered Clouds
3:15 PM 57.7 °F - 32.0 °F 38% 30.18 in 10.0 mi NW 12.7 mph 18.4 mph N/A   Scattered Clouds
3:35 PM 58.3 °F - 30.4 °F 35% 30.17 in 10.0 mi WNW 11.5 mph 20.7 mph N/A   Clear
3:55 PM 59.0 °F - 32.2 °F 36% 30.17 in 10.0 mi NNW 9.2 mph 17.3 mph N/A   Scattered Clouds
4:15 PM 58.1 °F - 32.2 °F 38% 30.17 in 10.0 mi NW 13.8 mph 19.6 mph N/A   Scattered Clouds
4:35 PM 58.1 °F - 30.0 °F 34% 30.16 in 10.0 mi NNW 6.9 mph - N/A   Scattered Clouds
4:55 PM 58.5 °F - 30.9 °F 35% 30.16 in 10.0 mi NW 11.5 mph 18.4 mph N/A   Clear
5:15 PM 59.0 °F - 32.0 °F 36% 30.16 in 10.0 mi NNW 12.7 mph - N/A   Clear
5:35 PM 58.1 °F - 31.1 °F 36% 30.16 in 10.0 mi WNW 12.7 mph 17.3 mph N/A   Clear
5:55 PM 57.7 °F - 29.5 °F 34% 30.16 in 10.0 mi NW 10.4 mph - N/A   Clear
6:15 PM 57.4 °F - 29.8 °F 35% 30.16 in 10.0 mi NW 6.9 mph - N/A   Clear
6:35 PM 57.2 °F - 30.2 °F 36% 30.15 in 10.0 mi NW 11.5 mph - N/A   Clear
6:55 PM 56.5 °F - 30.9 °F 38% 30.15 in 10.0 mi NW 10.4 mph - N/A   Clear
7:15 PM 55.9 °F - 32.4 °F 41% 30.16 in 10.0 mi WNW 6.9 mph - N/A   Clear
7:35 PM 53.8 °F - 33.4 °F 46% 30.16 in 10.0 mi WNW 5.8 mph - N/A   Clear
7:55 PM 52.2 °F - 34.2 °F 50% 30.16 in 10.0 mi WNW 4.6 mph - N/A   Clear
8:15 PM 51.1 °F - 34.2 °F 52% 30.17 in 10.0 mi WNW 4.6 mph - N/A   Clear
8:35 PM 52.7 °F - 33.1 °F 47% 30.17 in 10.0 mi WNW 3.5 mph - N/A   Clear
8:55 PM 51.1 °F - 34.2 °F 52% 30.18 in 10.0 mi WNW 3.5 mph - N/A   Clear
9:15 PM 50.9 °F - 35.6 °F 56% 30.18 in 10.0 mi Calm Calm - N/A   Clear
9:35 PM 47.7 °F - 36.1 °F 64% 30.19 in 10.0 mi WNW 3.5 mph - N/A   Clear
9:55 PM 44.1 °F - 39.6 °F 84% 30.19 in 10.0 mi Calm Calm - N/A   Clear
10:15 PM 43.3 °F - 41.0 °F 91% 30.19 in 10.0 mi Calm Calm - N/A   Clear
10:35 PM 43.0 °F - 41.0 °F 93% 30.19 in 10.0 mi Calm Calm - N/A   Clear
10:55 PM 42.1 °F - 40.6 °F 95% 30.18 in 10.0 mi Calm Calm - N/A   Clear
11:35 PM 42.8 °F - 39.2 °F 87% 30.18 in 10.0 mi Calm Calm - N/A   Clear
11:54 PM 41.0 °F - 39.2 °F 93% 30.18 in 10.0 mi Calm Calm - N/A   Clear